#timestamp,LO_Frequency,Hit,StdDev 
1509505215.9,286047001.1,N
1509505235.7,286046998.7,N
1509505255.6,286047001.2,N
1509505275.4,286046998.7,N
1509505295.2,286047000.7,N
1509505315.1,286047002.4,N
1509505316.0,286047002.4,N
1509505335.8,286047000.1,N
1509505355.7,286046999.7,N
1509505375.5,286047002.7,N
1509505395.3,286047002.0,N
1509505415.2,286047001.7,N
1509505435.0,286047002.0,N
1509505435.9,286047002.0,N
1509505455.8,286047001.9,N
1509505475.6,286047002.6,N
1509505495.4,286046999.7,N
1509505515.3,286047003.9,N
1509505535.1,286047004.2,N
1509505555.8,286047003.8,N
1509505575.7,286047001.6,N
1509505595.5,286047001.6,N
1509505615.4,286047001.4,N
1509505635.2,286047002.3,N
1509505655.0,286047002.6,N
1509505655.9,286047002.6,N
1509505675.8,286047002.3,N
1509505695.6,286047002.3,N
1509505715.4,286047003.7,N
1509505735.3,286047004.1,N
1509505755.1,286047004.4,Y
1509505775.9,286047001.0,P
1509505795.7,286047000.4,N
1509505815.5,286046998.4,N
1509505835.4,286047000.8,N
1509505855.2,286046998.3,N
1509505875.0,286046998.2,N
1509505875.9,286046998.2,N
1509505895.8,286046998.5,N
1509505915.6,286046999.8,N
1509505935.5,286047000.0,N
1509505955.3,286046998.2,N
1509505975.1,286047001.1,N
1509505995.9,286046998.9,N
1509506015.7,286046997.3,N
1509506035.5,286046996.6,N
1509506055.4,286046997.8,N
1509506075.2,286046998.0,N
1509506095.1,286046995.2,Y
1509506096.0,286046995.2,P
1509506115.8,286046996.7,N
1509506135.6,286046999.2,N
1509506155.5,286046998.7,N
1509506175.3,286046999.4,N
1509506195.2,286046998.4,N
1509506215.9,286046998.3,N
1509506235.7,286047001.0,N
1509506255.6,286046998.7,N
1509506275.4,286046999.4,N
1509506295.2,286046999.4,N
1509506315.1,286046999.2,N
1509506316.0,286046999.2,N
1509506335.8,286046998.7,N
1509506355.7,286046998.7,N
1509506375.5,286046998.5,N
1509506395.3,286046997.0,N
1509506415.2,286046996.6,N
1509506435.0,286046998.3,N
1509506435.9,286046998.3,N
1509506455.8,286046998.7,N
1509506475.6,286047001.2,N
1509506495.4,286047000.7,N
1509506515.3,286047000.8,N
1509506535.1,286047001.1,N
1509506555.8,286046999.2,N
1509506575.7,286046998.9,N
1509506595.5,286046996.8,N
1509506615.4,286046996.6,N
1509506635.2,286046997.0,N
1509506655.0,286046998.9,N
1509506655.9,286046998.9,N
1509506675.8,286047000.7,N
1509506695.6,286047000.3,N
1509506715.4,286046998.3,N
1509506735.3,286046998.5,N
1509506755.1,286046998.6,N
1509506775.9,286047001.0,N
1509506795.7,286047001.2,N
1509506815.5,286046998.1,N
1509506835.4,286046996.9,N
1509506855.2,286046997.4,N
1509506875.0,286046999.2,N
1509506875.9,286046999.2,N
1509506895.8,286047000.3,N
1509506915.6,286047000.5,N
1509506935.5,286047001.2,N
1509506955.3,286047001.1,N
1509506975.1,286046998.9,N
1509506995.9,286046999.1,N
1509507015.7,286046997.3,N
1509507035.5,286046999.3,N
1509507055.4,286046999.1,N
1509507075.2,286046999.1,N
1509507095.1,286046998.3,N
1509507096.0,286046998.3,N
1509507115.8,286046998.7,N
1509507135.6,286046999.3,N
1509507155.5,286046998.8,N
1509507175.3,286046999.4,N
1509507195.1,286046999.1,N
1509507215.9,286046999.0,N
1509507235.7,286046998.3,N
1509507255.6,286047000.0,N
1509507275.4,286047002.5,N
1509507295.2,286047000.5,N
1509507315.1,286047001.2,N
1509507316.0,286047001.2,N
1509507335.8,286046998.1,N
1509507355.6,286046998.2,N
1509507375.5,286046998.8,N
1509507395.3,286046996.5,N
1509507415.2,286046997.5,N
1509507435.9,286046996.8,N
1509507455.7,286046999.2,N
1509507475.6,286046996.9,N
1509507495.4,286046997.4,N
1509507515.2,286046995.1,Y
1509507535.1,286046999.5,P
1509507536.0,286046999.5,N
1509507555.8,286046998.3,P
1509507575.7,286046999.2,N
1509507595.5,286046999.5,N
1509507615.3,286046997.9,Y
1509507635.2,286046996.7,P
1509507655.0,286046999.5,N
1509507655.9,286046999.5,N
1509507675.8,286046999.3,N
1509507695.6,286046998.8,N
1509507715.4,286046998.4,N
1509507735.3,286046998.8,N
1509507755.1,286046999.2,N
1509507775.8,286046997.2,Y
1509507795.7,286046998.9,P
1509507815.5,286046998.7,P
1509507835.4,286046998.4,P
1509507855.2,286046998.3,Y
1509507875.0,286047000.6,P
1509507875.9,286047000.6,N
1509507895.8,286046999.5,N
1509507915.6,286046998.3,N
1509507935.4,286046998.8,N
1509507955.3,286046999.2,N
1509507975.1,286046999.2,N
1509507995.9,286046999.3,N
1509508015.7,286046999.6,N
1509508035.5,286046996.7,Y
1509508055.4,286046999.4,P
1509508075.2,286046998.1,P
1509508095.0,286046998.7,N
1509508096.0,286046998.7,N
1509508115.8,286046997.2,Y
1509508135.6,286046999.4,P
1509508155.5,286046996.5,P
1509508175.3,286046998.8,N
1509508195.1,286047001.0,N
1509508215.9,286046998.8,N
1509508235.7,286046998.2,N
1509508255.6,286046999.8,N
1509508275.4,286047000.0,N
1509508295.2,286046999.8,N
1509508315.1,286047001.9,N
1509508316.0,286047001.9,N
1509508335.8,286047003.1,N
1509508355.7,286047004.2,N
1509508375.5,286047004.0,N
1509508395.3,286047001.9,N
1509508415.2,286047001.6,N
1509508435.9,286047000.2,N
1509508455.7,286047001.2,N
1509508475.6,286047001.2,N
1509508495.4,286047000.6,N
1509508515.2,286047000.9,N
1509508535.1,286047000.3,N
1509508536.0,286047000.3,N
1509508555.8,286047000.7,N
1509508575.7,286047000.8,N
1509508595.5,286047000.7,N
1509508615.3,286047001.2,N
1509508635.2,286046998.1,N
1509508655.0,286047000.6,N
1509508655.9,286047000.6,N
1509508675.8,286046998.4,N
1509508695.6,286046998.1,N
1509508715.4,286047000.8,N
1509508735.3,286047000.0,N
1509508755.1,286047000.4,N
1509508775.9,286046998.5,N
1509508795.7,286046998.3,N
